FW9643 Weather Reports


time (UTC)temp
F
wind
direction
speed
knots
gust
knots
rain 1hr
in
rain 24hr
in
rain mn
in
humidity
%
barometer
mb
20260505140514 0 354 2.6 6.1 0.07 0.11 0.11 1017.7
20260505124926 0 56 0.0 0.0 0.00 0.09 0.09 1016.2
20260505124424 0 56 0.0 1.7 0.00 0.09 0.09 1015.9
20260505123920 0 56 0.0 0.0 0.00 0.09 0.09 1016.0
20260505123416 0 57 0.9 1.7 0.00 0.09 0.09 1015.9
20260505122912 0 57 0.9 0.9 0.00 0.09 0.09 1015.9
20260505122410 0 57 0.0 0.0 0.00 0.09 0.09 1015.9
20260505121906 0 57 0.0 0.0 0.00 0.09 0.09 1015.8
20260505121403 0 57 0.0 0.9 0.07 0.09 0.09 1015.9
20260505120859 0 57 0.9 0.9 0.07 0.09 0.09 1015.8
20260505120356 0 57 0.9 2.6 0.00 0.08 0.08 1015.6
20260505115854 0 56 1.7 4.3 0.00 0.08 0.08 1015.6
20260505115352 0 56 0.0 0.0 0.00 0.08 0.08 1015.5
20260505114849 0 56 0.9 1.7 0.05 0.08 0.08 1015.5
20260505114345 0 56 0.9 0.9 0.12 0.08 0.08 1015.5
20260505113842 0 56 0.9 0.9 0.07 0.07 0.07 1015.6
20260505113339 0 56 1.7 2.6 0.07 0.06 0.06 1015.3
20260505112834 0 56 0.0 0.9 0.07 0.06 0.06 1015.3
20260505112332 0 56 0.9 0.9 0.00 0.05 0.05 1015.3
20260505111827 0 56 0.0 0.0 0.00 0.05 0.05 1015.0
20260505111323 0 57 0.0 0.0 0.00 0.05 0.05 1015.1
20260505110819 0 57 1.7 1.7 0.00 0.05 0.05 1015.0
20260505110317 0 60 0.9 0.9 0.00 0.05 0.05 1015.3
20260505101751 0 51 0.0 0.0 0.00 0.05 0.05 1014.3
20260505101247 0 50 0.0 0.0 0.00 0.05 0.05 1014.5
20260505100743 0 46 0.0 0.0 0.00 0.05 0.05 1014.3
20260505100240 0 54 0.0 0.9 0.00 0.05 0.05 1014.3
20260505095735 0 49 0.0 0.0 0.00 0.05 0.05 1014.2
20260505095234 0 47 0.0 0.0 0.00 0.05 0.05 1014.7
20260505094729 0 47 0.0 0.0 0.00 0.05 0.05 1014.5
20260505094226 0 48 0.9 0.9 0.00 0.05 0.05 1014.1
20260505093722 0 26 7.8 11.3 0.00 0.05 0.05 1013.4
20260505093220 0 35 6.1 7.8 0.00 0.05 0.05 1013.3
20260505092716 0 42 1.7 2.6 0.00 0.05 0.05 1014.1
20260505092215 0 48 0.0 0.9 0.00 0.05 0.05 1014.4
20260505091712 0 44 1.7 1.7 0.00 0.05 0.05 1014.2
20260505091210 0 51 0.9 0.9 0.00 0.05 0.05 1014.2
20260505090707 0 34 2.6 2.6 0.00 0.05 0.05 1014.4
20260505090205 0 48 0.0 0.0 0.00 0.05 0.05 1014.1
20260505085703 0 58 0.0 0.9 0.00 0.05 0.05 1014.1
20260505085201 0 67 0.9 1.7 0.00 0.05 0.05 1014.3
20260505084658 0 70 0.9 1.7 0.00 0.05 0.05 1014.1
20260505084156 0 77 0.9 0.9 0.00 0.05 0.05 1014.1
20260505083653 0 120 2.6 2.6 0.00 0.05 0.05 1014.1
20260505083150 0 55 0.0 0.0 0.00 0.05 0.05 1014.2
20260505082645 0 51 0.9 0.9 0.00 0.05 0.05 1014.2
20260505082143 0 45 0.9 0.9 0.00 0.05 0.05 1014.3
20260505081639 0 49 0.0 0.0 0.00 0.05 0.05 1014.7
20260505081137 0 50 0.0 0.0 0.00 0.05 0.05 1015.0
20260505080633 0 45 0.9 1.7 0.00 0.05 0.05 1014.8
20260505080129 0 111 2.6 4.3 0.00 0.05 0.05 1014.7
20260505075625 0 48 1.7 2.6 0.00 0.05 0.05 1014.5
20260505075122 0 172 1.7 4.3 0.00 0.05 0.05 1014.8
20260505074619 0 143 1.7 2.6 0.00 0.05 0.05 1014.8
20260505074116 0 121 2.6 4.3 0.00 0.05 0.05 1014.9
20260505073614 0 45 0.9 0.9 0.05 0.05 0.05 1015.4
20260505073112 0 47 0.9 0.9 0.05 0.05 0.05 1015.3
20260505072607 0 84 0.9 1.7 0.00 0.04 0.04 1015.4
20260505072104 0 43 1.7 1.7 0.00 0.04 0.04 1015.4
20260505071559 0 115 1.7 1.7 0.00 0.04 0.04 1015.8
20260505071058 0 129 6.1 7.0 0.07 0.04 0.04 1015.5
20260505070554 0 154 5.2 6.1 0.12 0.04 0.04 1015.5
20260505070050 0 52 1.7 1.7 0.05 0.03 0.03 1016.0
20260505065546 0 66 0.0 0.9 0.12 0.03 0.03 1016.0
20260505065044 0 72 1.7 1.7 0.07 0.02 0.02 1016.1
20260505064540 0 47 0.0 0.0 0.05 0.01 0.01 1016.1
20260505064039 0 50 0.0 0.0 0.05 0.01 0.01 1015.9
20260505063536 0 47 0.0 0.0 0.00 0.00 0.00 1016.0
20260505063031 0 47 0.0 0.0 0.00 0.00 0.00 1016.0
20260505062528 0 47 0.0 0.0 0.00 0.00 0.00 1015.9
20260505062026 0 47 0.0 0.0 0.00 0.00 0.00 1016.0
20260505061523 0 49 0.0 0.0 0.00 0.00 0.00 1016.0
20260505061021 0 51 0.0 0.0 0.00 0.00 0.00 1016.1
20260505060518 0 57 0.0 0.9 0.00 0.00 0.00 1015.8
20260505060015 0 48 0.0 0.0 0.00 0.09 0.09 1015.9
20260505055510 0 51 0.9 0.9 0.00 0.09 0.09 1015.9
20260505055007 0 83 0.9 1.7 0.00 0.09 0.09 1016.0
20260505054504 0 51 0.0 0.9 0.00 0.09 0.09 1016.0
20260505054002 0 63 0.9 1.7 0.00 0.09 0.09 1016.0
20260505053459 0 47 0.0 0.0 0.07 0.09 0.09 1015.5
20260505052955 0 45 0.0 0.0 0.12 0.09 0.09 1015.8
20260505052453 0 35 2.6 2.6 0.12 0.08 0.08 1016.0
20260505051950 0 47 0.0 0.9 0.12 0.08 0.08 1016.2
20260505051447 0 46 0.0 0.0 0.00 0.06 0.06 1016.1
20260505050945 0 48 0.0 0.0 0.05 0.06 0.06 1016.2
20260505050443 0 58 0.9 0.9 0.05 0.06 0.06 1016.2
20260505041411 0 49 0.0 0.0 0.05 0.04 0.04 1016.1
20260505040908 0 43 0.0 0.9 0.00 0.03 0.03 1016.1
20260505040405 0 34 3.5 4.3 0.07 0.03 0.03 1016.0
20260505035902 0 45 0.0 0.0 0.07 0.03 0.03 1015.6
20260505035357 0 44 0.0 0.9 0.07 0.02 0.02 1015.5
20260505034855 0 54 0.0 0.0 0.07 0.02 0.02 1015.8
20260505034351 0 49 0.0 0.0 0.00 0.01 0.01 1015.9
20260505033849 0 52 0.9 0.9 0.00 0.01 0.01 1015.9
20260505033345 0 48 0.0 0.0 0.00 0.01 0.01 1015.9
20260505032844 0 48 0.0 0.0 0.00 0.01 0.01 1016.0
20260505032340 0 52 0.0 0.0 0.05 0.01 0.01 1015.6
20260505031837 0 49 0.0 0.0 0.05 0.01 0.01 1015.8
20260505031333 0 50 0.0 0.0 0.00 0.00 0.00 1015.5
20260505030831 0 61 0.9 0.9 0.00 0.00 0.00 1015.8
20260505030327 0 63 0.0 0.9 0.00 0.00 0.00 1015.6
20260505025822 0 60 1.7 1.7 0.00 0.00 0.00 1015.6
20260505025320 0 49 0.0 0.0 0.00 0.00 0.00 1015.1
20260505024818 0 64 0.9 1.7 0.00 0.00 0.00 1015.4
20260505024316 0 52 0.9 0.9 0.00 0.00 0.00 1015.3
20260505023813 0 50 0.0 0.0 0.00 0.00 0.00 1015.0
20260505023309 0 47 0.0 0.0 0.00 0.00 0.00 1015.0
20260505022807 0 49 0.0 0.0 0.00 0.00 0.00 1015.0
20260505022304 0 52 0.0 0.0 0.00 0.00 0.00 1014.8
20260505021801 0 59 1.7 1.7 0.00 0.00 0.00 1015.0
20260505021258 0 54 0.0 0.0 0.00 0.00 0.00 1015.0
20260505020753 0 54 0.0 0.0 0.00 0.00 0.00 1014.9
20260505020248 0 48 0.0 0.0 0.00 0.00 0.00 1015.0
20260505015746 0 48 0.0 0.0 0.00 0.00 0.00 1014.9
20260505015243 0 50 0.0 0.0 0.00 0.00 0.00 1015.0
20260505014740 0 47 0.0 0.0 0.00 0.00 0.00 1014.7
20260505014238 0 37 0.0 0.0 0.00 0.00 0.00 1014.5
20260505013734 0 54 0.0 0.9 0.00 0.00 0.00 1014.4
20260505013231 0 48 0.0 0.0 0.00 0.00 0.00 1014.5
20260505012729 0 42 0.0 0.0 0.00 0.00 0.00 1014.7
20260505012226 0 21 0.9 0.9 0.00 0.00 0.00 1014.8
20260505011722 0 6 1.7 2.6 0.00 0.00 0.00 1014.7
20260505011219 0 55 1.7 2.6 0.00 0.00 0.00 1014.9
20260505010715 0 78 0.9 0.9 0.00 0.00 0.00 1014.3
20260505010212 0 62 1.7 2.6 0.00 0.00 0.00 1014.3
20260505005708 0 52 0.9 0.9 0.00 0.00 0.00 1014.3
20260505005205 0 43 0.0 0.9 0.00 0.00 0.00 1014.1
20260505004702 0 54 0.0 0.0 0.00 0.00 0.00 1014.1
20260505004159 0 42 0.0 0.0 0.00 0.00 0.00 1013.9
20260505003656 0 47 0.0 0.0 0.00 0.00 0.00 1014.1
20260505003153 0 47 0.0 0.0 0.00 0.00 0.00 1013.9
20260505002649 0 47 0.9 0.9 0.00 0.00 0.00 1013.9
20260505002148 0 63 1.7 1.7 0.00 0.00 0.00 1014.2
20260505001644 0 86 0.9 1.7 0.00 0.00 0.00 1014.3
20260505001142 0 66 0.0 0.0 0.00 0.00 0.00 1014.1
20260505000638 0 77 0.9 1.7 0.00 0.00 0.00 1014.3
20260505000137 0 71 2.6 2.6 0.00 0.00 0.00 1013.9
20260504235633 0 73 1.7 1.7 0.00 0.00 0.00 1013.8
20260504235129 0 76 0.9 1.7 0.00 0.00 0.00 1014.2
20260504234626 0 43 7.0 9.6 0.00 0.00 0.00 1014.1
20260504234124 0 45 1.7 1.7 0.00 0.00 0.00 1013.9
20260504233619 0 45 0.0 0.0 0.00 0.00 0.00 1013.9
20260504233115 0 42 0.9 0.9 0.00 0.00 0.00 1013.4
20260504232614 0 219 2.6 4.3 0.00 0.00 0.00 1013.3
20260504232110 0 31 3.5 5.2 0.00 0.00 0.00 1013.2
20260504231607 0 16 10.4 12.2 0.00 0.00 0.00 1013.3
20260504231103 0 18 7.8 13.0 0.00 0.00 0.00 1013.0
20260504230559 0 11 10.4 13.0 0.00 0.00 0.00 1013.0
20260504230058 0 15 9.6 12.2 0.00 0.00 0.00 1012.5
20260504225555 0 35 0.9 1.7 0.00 0.00 0.00 1012.4
20260504225052 0 51 1.7 1.7 0.00 0.00 0.00 1012.1
20260504224549 0 57 4.3 6.1 0.00 0.00 0.00 1011.9
20260504224046 0 27 7.0 7.8 0.00 0.00 0.00 1012.2
20260504223543 0 69 0.9 0.9 0.00 0.00 0.00 1012.0
20260504223038 0 28 2.6 4.3 0.00 0.00 0.00 1011.7
20260504222536 0 24 5.2 6.1 0.00 0.00 0.00 1011.9
20260504222033 0 29 0.9 1.7 0.00 0.00 0.00 1012.0
20260504221530 0 47 0.0 0.0 0.00 0.00 0.00 1011.9
20260504221027 0 15 7.8 8.7 0.00 0.00 0.00 1011.9
20260504220524 0 25 3.5 5.2 0.00 0.00 0.00 1012.0
20260504220021 0 11 1.7 4.3 0.00 0.00 0.00 1011.7
20260504215517 0 15 1.7 1.7 0.00 0.00 0.00 1011.9
20260504215015 0 64 1.7 1.7 0.00 0.00 0.00 1012.0
20260504214510 0 56 1.7 2.6 0.00 0.00 0.00 1012.1
20260504214007 0 57 0.9 1.7 0.00 0.00 0.00 1012.1
20260504213503 0 37 1.7 2.6 0.00 0.00 0.00 1012.1
20260504213001 0 95 0.9 1.7 0.00 0.00 0.00 1012.2
20260504212456 0 104 0.9 0.9 0.00 0.00 0.00 1012.4
20260504211954 0 57 0.0 0.0 0.00 0.00 0.00 1012.4
20260504211450 0 72 1.7 1.7 0.00 0.00 0.00 1012.2
20260504210948 0 170 1.7 1.7 0.00 0.00 0.00 1012.2
20260504210444 0 350 4.3 5.2 0.00 0.00 0.00 1012.5
20260504205941 0 28 6.1 7.8 0.00 0.00 0.00 1012.5
20260504205439 0 76 2.6 2.6 0.00 0.00 0.00 1012.4
20260504204937 0 50 4.3 6.1 0.00 0.00 0.00 1012.7
20260504204435 0 39 3.5 7.0 0.00 0.00 0.00 1012.7
20260504203934 0 17 6.1 7.8 0.00 0.00 0.00 1012.6
20260504203431 0 19 7.0 7.8 0.00 0.00 0.00 1012.5
20260504202927 0 75 1.7 2.6 0.00 0.00 0.00 1012.5
20260504202424 0 28 6.1 7.0 0.00 0.00 0.00 1012.6
20260504201920 0 6 7.8 12.2 0.00 0.00 0.00 1012.5
20260504201418 0 27 6.1 7.8 0.00 0.00 0.00 1012.4
20260504200915 0 19 8.7 11.3 0.00 0.00 0.00 1012.5
20260504200412 0 350 2.6 4.3 0.00 0.00 0.00 1012.7
20260504195909 0 15 9.6 12.2 0.00 0.00 0.00 1012.8
20260504195404 0 226 1.7 1.7 0.00 0.00 0.00 1012.8
20260504194901 0 20 4.3 6.1 0.00 0.00 0.00 1012.7
20260504194357 0 93 0.0 0.0 0.00 0.00 0.00 1012.7
20260504193853 0 90 1.7 2.6 0.00 0.00 0.00 1013.0
20260504193350 0 336 2.6 5.2 0.00 0.00 0.00 1012.7
20260504192849 0 20 0.9 0.9 0.00 0.00 0.00 1012.8
20260504192347 0 29 4.3 8.7 0.00 0.00 0.00 1012.6
20260504191845 0 41 2.6 4.3 0.00 0.00 0.00 1012.8
20260504191343 0 59 1.7 1.7 0.00 0.00 0.00 1012.4
20260504190838 0 43 0.9 0.9 0.00 0.00 0.00 1012.5
20260504190334 0 41 2.6 4.3 0.00 0.00 0.00 1012.5
20260504185831 0 44 0.9 1.7 0.00 0.00 0.00 1012.5
20260504185328 0 42 1.7 1.7 0.00 0.00 0.00 1012.6
20260504184824 0 61 0.0 0.0 0.00 0.00 0.00 1012.6
20260504184320 0 48 0.0 0.0 0.00 0.00 0.00 1012.6
20260504183815 0 103 0.9 1.7 0.00 0.00 0.00 1012.7
20260504183313 0 106 1.7 1.7 0.00 0.00 0.00 1013.2
20260504182811 0 82 2.6 4.3 0.00 0.00 0.00 1013.1
20260504182308 0 32 2.6 4.3 0.00 0.00 0.00 1013.3
20260504181805 0 80 2.6 2.6 0.00 0.00 0.00 1013.2
20260504181302 0 148 1.7 1.7 0.00 0.00 0.00 1013.3
20260504180801 0 115 1.7 1.7 0.00 0.00 0.00 1013.4
20260504180259 0 44 0.9 1.7 0.00 0.00 0.00 1013.2
20260504175757 0 60 1.7 2.6 0.00 0.00 0.00 1013.0
20260504175253 0 49 0.0 0.0 0.00 0.00 0.00 1013.3
20260504174751 0 44 1.7 1.7 0.00 0.00 0.00 1013.6
20260504174249 0 85 1.7 2.6 0.00 0.00 0.00 1013.4
20260504173745 0 46 1.7 1.7 0.00 0.00 0.00 1013.7
20260504173242 0 48 0.9 0.9 0.00 0.00 0.00 1013.7
20260504172739 0 62 0.9 0.9 0.00 0.00 0.00 1013.9
20260504172236 0 45 0.9 0.9 0.00 0.00 0.00 1013.8
20260504171732 0 31 0.0 0.9 0.00 0.00 0.00 1014.1
20260504171229 0 53 0.0 0.9 0.00 0.00 0.00 1013.7
20260504170726 0 39 0.0 0.9 0.00 0.00 0.00 1013.9
20260504170223 0 56 0.0 0.9 0.00 0.00 0.00 1014.3
20260504160142 0 81 0.9 1.7 0.00 0.00 0.00 1014.5
20260504151109 0 67 0.9 0.9 0.00 0.00 0.00 1014.8
20260504150607 0 82 1.7 2.6 0.00 0.00 0.00 1014.8
20260504150104 0 50 0.0 0.0 0.00 0.00 0.00 1015.3